Location: Équennes
(49.7375°N, 1.9622°E)
Time: 22:43:30
(UTC+00:00)

Cosmos 1980 Rocket - Pass Details

Date: 28 January 2023
Orbit: 828 x 850 km, 71.0° (Epoch: 28 March)

Event Time Altitude Azimuth Distance (km) Brightness Sun altitude
Rises 20:19:14 0° 263° (W) 3,393 6.2 -35.2°
Reaches altitude 10° 20:22:30 10° 282° (WNW) 2,466 5.4 -35.7°
Maximum altitude 20:26:19 18° 325° (NW) 1,960 4.5 -36.3°
Enters shadow 20:28:06 16° 348° (NNW) 2,086 4.4 -36.6°
